TimeEST,TemperatureF,Dew PointF,Humidity,Sea Level PressureIn,VisibilityMPH,Wind Direction,Wind SpeedMPH,Gust SpeedMPH,PrecipitationIn,Events,Conditions,WindDirDegrees,DateUTC
12:53 AM,52.0,28.9,41,29.98,10.0,SW,19.6,29.9,N/A,,Clear,220,2012-01-31 05:53:00
1:53 AM,52.0,28.0,40,29.98,10.0,SW,25.3,35.7,N/A,,Clear,220,2012-01-31 06:53:00
2:53 AM,52.0,28.0,40,29.98,10.0,SW,28.8,35.7,N/A,,Clear,220,2012-01-31 07:53:00
3:53 AM,51.1,28.0,41,29.98,10.0,SW,25.3,38.0,N/A,,Clear,220,2012-01-31 08:53:00
4:53 AM,51.1,28.0,41,29.99,10.0,SW,20.7,32.2,N/A,,Clear,220,2012-01-31 09:53:00
5:53 AM,51.1,28.9,43,29.99,10.0,SW,19.6,31.1,N/A,,Clear,220,2012-01-31 10:53:00
6:53 AM,52.0,28.9,41,29.99,10.0,SSW,17.3,31.1,N/A,,Clear,200,2012-01-31 11:53:00
7:53 AM,52.0,28.0,40,30.01,10.0,SSW,21.9,34.5,N/A,,Clear,210,2012-01-31 12:53:00
8:53 AM,52.0,28.0,40,30.02,10.0,SSW,16.1,33.4,N/A,,Partly Cloudy,200,2012-01-31 13:53:00
9:53 AM,53.6,28.4,38,30.01,10.0,SSW,16.1,29.9,N/A,,Mostly Cloudy,200,2012-01-31 14:53:00
10:53 AM,55.9,30.0,37,30.00,10.0,South,17.3,26.5,N/A,,Scattered Clouds,190,2012-01-31 15:53:00
11:53 AM,59.0,30.9,35,29.98,10.0,SSW,19.6,27.6,N/A,,Clear,210,2012-01-31 16:53:00
12:53 PM,61.0,34.0,36,29.96,10.0,SSW,18.4,24.2,N/A,,Clear,200,2012-01-31 17:53:00
1:53 PM,62.1,36.0,38,29.93,10.0,SSW,17.3,25.3,N/A,,Clear,210,2012-01-31 18:53:00
2:53 PM,62.1,37.9,41,29.92,10.0,SSW,12.7,-,N/A,,Mostly Cloudy,210,2012-01-31 19:53:00
3:53 PM,61.0,37.9,42,29.92,10.0,SSW,17.3,28.8,N/A,,Mostly Cloudy,210,2012-01-31 20:53:00
4:53 PM,60.1,37.9,44,29.91,10.0,SSW,20.7,26.5,N/A,,Overcast,200,2012-01-31 21:53:00
5:53 PM,57.9,37.0,46,29.92,10.0,SSW,13.8,-,N/A,,Overcast,200,2012-01-31 22:53:00
6:53 PM,57.9,37.9,47,29.92,10.0,South,17.3,24.2,N/A,,Overcast,190,2012-01-31 23:53:00
7:53 PM,57.9,37.9,47,29.92,10.0,South,17.3,25.3,N/A,,Overcast,190,2012-02-01 00:53:00
8:53 PM,57.9,39.0,49,29.91,10.0,SSW,18.4,-,N/A,,Overcast,200,2012-02-01 01:53:00
9:53 PM,57.0,45.0,64,29.92,10.0,SW,21.9,35.7,N/A,,Overcast,220,2012-02-01 02:53:00
10:53 PM,55.0,45.0,69,29.91,10.0,SSW,16.1,27.6,N/A,,Overcast,210,2012-02-01 03:53:00
11:53 PM,55.0,45.0,69,29.88,10.0,SSW,19.6,27.6,N/A,,Overcast,200,2012-02-01 04:53:00